DELTA 1 DEB

Satellite information

Favourite Embed

Satellite Type and Status

DEBRISIN ORBIT

Key statistics

Satellite DELTA 1 DEB at a glance.

Uptime

17451

Days in orbit

Revolutions

≈ 14.4

Per day

Orbit

SSO

Sun Synchronous Orbit

Inclination

98.6

Latest

Satellite identification and parameters

Extended collection of information and parameters for DELTA 1 DEB.

Object identification

Identified? True

Debris? True

Object name: DELTA 1 DEB

International designator: 1978-026FT

Object number (NORAD): 13580

Object ID (CCSDS): 13580

Country: UNITED STATES OF AMERICA (US)

Current information (Y/N): Y

RCS size: SMALL

Orbital parameters

Period: 99.926 minutes

Inclination: 98.5951 deg

SMA: 7133.122 km

Apoapsis: 788.365 km

Periapsis: 721.609 km

RAAN: 13.3944 deg

Eccentricy: 0.0046793

Argument of periapsis: 136.9106 deg

Mean anomaly: 223.5761 deg

Mean motion: 14.41063947 rev/day

Mean motion (dot): 0.00001841 rev/day2

B* drag term: 0.00057842 1/REarth

Two-line elements (TLE)

Creation date: Dec. 10, 2025, 3:16 p.m.

Reference frame: TEME

Reference center: EARTH

Epoch: Dec. 10, 2025, 7:48 a.m. UTC

TLE line 0: 0 DELTA 1 DEB

TLE line 1: 1 13580U 78026FT 25344.32532282 .00001841 00000-0 57842-3 0 9998

TLE line 2: 2 13580 98.5951 13.3944 0046793 136.9106 223.5761 14.41063947654555

Live tracking on map

Real-time ground track for satellite DELTA 1 DEB.

In-orbit conjunctions

A list of the most updated potential collisions computed for object DELTA 1 DEB.

Target Orbit TCA Probability of collision Miss distance Type
IRIDIUM 33 DEB LEO 2025-12-10 16:04:49 0.0001566431 134.0 (m) DEBRIS

Associated space launch

Earth observation satellite

DELTA 1 DEB was lifted into orbit during the mission ‘Delta 2910 | Landsat 3’, on board a Delta 2910 space rocket.

The launch took place on March 5, 1978, 5:54 p.m. from Space Launch Complex 2W.

For more information about the launch, click the button.

Launch to space Delta 2910 | Landsat 3
Delta 2910 | Landsat 3

Agency: N/A

Status: Launch Successful

Launch date: March 5, 1978, 5:54 p.m. UTC

Rocket: Delta 2910

Launch pad: Space Launch Complex 2W

Location: Vandenberg SFB, CA, USA

...

Latest news about this satellite

There are no fresh news available about this satellite. Check back as we update our databases every day.


Newsletter sign-up

Weekly statistics, charts and insights to help you stay on top of the space industry.